Simultaneous Nadir Overpasses (SNOs) Predictions

Prediction of SNOs between NOAA-19 and TERRA Satellite Orbit:

Table of predicted SNOs for the next 14.0 days since TLE Epoch: 1/19/2018
Index Date (NOAA-19) Time (NOAA-19) Lat,Lon (NOAA-19) SZA (NOAA-19 ) Date (TERRA) Time (TERRA) Lat,Lon (TERRA) SZA (TERRA ) Distance(km) Time Diff (sec)
1 01/19/2018 23:29:32 -76.50, 21.81 83.15 01/19/2018 23:30:26 -76.52, 21.78 83.12 1.92 54
2 01/20/2018 00:20:28 76.46,-170.78 96.82 01/20/2018 00:19:53 76.45,-170.80 96.80 1.72 35
3 01/22/2018 05:03:09 76.52, 118.41 96.37 01/22/2018 05:04:09 76.50, 118.32 96.37 2.79 60
4 01/22/2018 05:54:13 -76.48, -74.21 83.67 01/22/2018 05:53:37 -76.48, -74.13 83.67 2.16 36
5 01/24/2018 10:36:54 -76.52,-144.98 84.16 01/24/2018 10:37:53 -76.53,-145.02 84.14 1.78 59
6 01/24/2018 11:27:49 76.47, 22.50 95.80 01/24/2018 11:27:20 76.46, 22.38 95.78 3.09 29
7 01/26/2018 16:10:30 76.53, -48.32 95.30 01/26/2018 16:11:35 76.56, -48.37 95.34 3.56 65
8 01/26/2018 17:01:35 -76.51, 118.96 84.73 01/26/2018 17:01:04 -76.49, 119.04 84.76 3.22 31
9 01/28/2018 21:44:16 -76.56, 48.15 85.26 01/28/2018 21:45:19 -76.58, 48.27 85.23 3.44 63
10 01/28/2018 22:35:10 76.49,-144.26 94.67 01/28/2018 22:34:46 76.51,-144.33 94.68 2.85 24
11 01/31/2018 03:17:52 76.59, 144.72 94.16 01/31/2018 03:19:01 76.59, 144.89 94.18 4.32 69
12 01/31/2018 04:08:56 -76.52, -47.78 85.91 01/31/2018 04:08:30 -76.52, -47.71 85.91 1.85 26
13 02/02/2018 08:51:36 -76.59,-118.63 86.48 02/02/2018 08:52:45 -76.56,-118.66 86.50 3.40 69




NCC Satellite Simultaneous Nadir Overpasses (SNOs) Prediction Service
